Change the Weather History Date:

Monday, October 22, 2012

  Actual Average Record
Temperature  
Mean Temperature 34 °F -  
Max Temperature 39 °F 47 °F 75 °F (2008)
Min Temperature 30 °F 28 °F 21 °F (2005)
Degree Days  
Heating Degree Days 30    
Moisture  
Dew Point 34 °F    
Average Humidity 93    
Maximum Humidity 100    
Minimum Humidity 87    
Precipitation  
Precipitation 0.00 in 0.03 in - ()
Sea Level Pressure  
Sea Level Pressure 29.93 in    
Wind  
Wind Speed 9 mph ()    
Max Wind Speed 13 mph    
Max Gust Speed 22 mph    
Visibility 2.0 miles    
Events Rain , Snow    
Averages and records for this station are not official NWS values.
T = Trace of Precipitation, MM = Missing Value Source: Averaged Metar Reports

Daily Weather History Graph

Daily Weather History Graph

Search for Another Location

Airport or City:

Trip Planner

Search our weather history database for the weather conditions in past years. The results will help you decide how hot, cold, wet, or windy it might be!

Date:

Astronomy

Oct. 22, 2012 Rise Set
Actual Time 6:06 AM CST 4:54 PM CST
Civil Twilight 5:37 AM CST 5:22 PM CST
Nautical Twilight 5:05 AM CST 5:54 PM CST
Astronomical Twilight 4:33 AM CST 6:27 PM CST
Moon 12:44 PM CST (10/22) 11:15 PM CST (10/22)
Length of Visible Light 11h 44m
Length of Day
10h 48m
Waxing Crescent, 50% of the Moon is Illuminated
Oct 22
Waxing Crescent
Oct 30
Full
Nov 7
Last Quarter
Nov 14
New
Nov 20
First Quarter

Hourly Weather History & Observations

Time (CST) Temp. Windchill Dew Point Humidity Pressure Visibility Wind Dir Wind Speed Gust Speed Precip Events Conditions
12:00 AM 39.2 °F 33.1 °F 35.6 °F 87% 30.01 in 2.5 mi NE 8.9 mph - N/A Rain Light Rain
12:30 AM 39.2 °F 32.2 °F 35.6 °F 87% 29.98 in 2.5 mi NE 11.2 mph - N/A Rain Light Rain
1:00 AM 37.4 °F 29.9 °F 35.6 °F 93% 29.98 in 2.5 mi NE 11.2 mph - N/A Rain Light Rain
1:30 AM 37.4 °F 29.9 °F 37.4 °F 100% 29.95 in 1.6 mi NE 11.2 mph - N/A Rain Light Rain
2:00 AM 39.2 °F 31.3 °F 37.4 °F 93% 29.92 in 1.1 mi ENE 13.4 mph - N/A Rain Light Rain
2:30 AM 39.2 °F 31.3 °F 37.4 °F 93% 29.86 in 0.9 mi NE 13.4 mph - N/A Rain Light Rain
3:00 AM 39.2 °F 31.3 °F 37.4 °F 93% 29.86 in 0.9 mi NE 13.4 mph - N/A Rain Light Rain
3:30 AM 39.2 °F 32.2 °F 37.4 °F 93% 29.83 in 0.9 mi NNE 11.2 mph - N/A Rain Light Rain
4:00 AM 39.2 °F 32.2 °F 37.4 °F 93% 29.83 in 0.9 mi NNE 11.2 mph - N/A Rain Light Rain
4:30 AM 39.2 °F 32.2 °F 37.4 °F 93% 29.83 in 0.9 mi North 11.2 mph - N/A Rain Light Rain
5:00 AM 39.2 °F 32.2 °F 37.4 °F 93% 29.83 in 0.9 mi North 11.2 mph - N/A Rain Light Rain
5:30 AM 39.2 °F 33.1 °F 37.4 °F 93% 29.80 in 0.9 mi North 8.9 mph - N/A Rain Light Rain
6:00 AM 39.2 °F 33.1 °F 37.4 °F 93% 29.80 in 0.9 mi North 8.9 mph - N/A Rain Light Rain
6:30 AM 37.4 °F 30.9 °F 37.4 °F 100% 29.83 in 0.9 mi North 8.9 mph - N/A Rain Light Rain
7:00 AM 37.4 °F 32.2 °F 35.6 °F 93% 29.83 in 0.9 mi North 6.7 mph - N/A Rain Light Rain
7:30 AM 37.4 °F 30.9 °F 35.6 °F 93% 29.83 in 0.9 mi NNW 8.9 mph - N/A Rain Light Rain
8:00 AM 37.4 °F 32.2 °F 35.6 °F 93% 29.86 in 1.2 mi North 6.7 mph - N/A Rain Light Rain
8:30 AM 37.4 °F 30.9 °F 35.6 °F 93% 29.86 in 1.2 mi North 8.9 mph - N/A Rain Light Rain
9:00 AM 35.6 °F 27.7 °F 35.6 °F 100% 29.86 in 1.2 mi NW 11.2 mph - N/A Rain Light Rain
9:30 AM 35.6 °F 28.7 °F 33.8 °F 93% 29.86 in 1.1 mi NW 8.9 mph - N/A Rain Light Rain
10:00 AM 35.6 °F 28.7 °F 33.8 °F 93% 29.89 in 1.1 mi NNW 8.9 mph - N/A Rain Light Rain
10:30 AM 35.6 °F 28.7 °F 33.8 °F 93% 29.89 in 1.4 mi North 8.9 mph - N/A Rain Light Rain
11:00 AM 35.6 °F 28.7 °F 33.8 °F 93% 29.89 in 2.8 mi NNW 8.9 mph - N/A Rain Light Rain
11:30 AM 35.6 °F 27.7 °F 33.8 °F 93% 29.89 in 2.8 mi NNW 11.2 mph - N/A   Light Small Hail Showers
12:00 PM 35.6 °F 28.7 °F 33.8 °F 93% 29.89 in 2.2 mi NNW 8.9 mph - N/A   Light Small Hail Showers
12:30 PM 35.6 °F 27.7 °F 33.8 °F 93% 29.89 in 2.5 mi NNW 11.2 mph - N/A Rain , Snow Light Snow
1:00 PM 35.6 °F 27.7 °F 33.8 °F 93% 29.92 in 3.1 mi NNW 11.2 mph - N/A Rain , Snow Light Snow
1:30 PM 35.6 °F 27.7 °F 33.8 °F 93% 29.92 in 2.5 mi NNW 11.2 mph 22.4 mph N/A Rain , Snow Light Snow
2:00 PM 35.6 °F 27.7 °F 33.8 °F 93% 29.95 in 3.1 mi NW 11.2 mph - N/A Rain , Snow Light Snow
2:30 PM 35.6 °F 26.8 °F 33.8 °F 93% 29.95 in 3.7 mi NNW 13.4 mph - N/A Rain , Snow Light Snow
3:00 PM 35.6 °F 26.8 °F 33.8 °F 93% 29.98 in 3.1 mi NNW 13.4 mph - N/A Rain , Snow Light Snow
4:00 PM 37.4 °F 30.9 °F 33.8 °F 87% 30.01 in - NW 8.9 mph - N/A   Clear
4:30 PM 37.4 °F 30.9 °F 33.8 °F 87% 30.01 in - NW 8.9 mph - N/A   Clear
5:00 PM 37.4 °F 32.2 °F 33.8 °F 87% 30.01 in - WNW 6.7 mph - N/A   Clear
5:30 PM 37.4 °F 32.2 °F 33.8 °F 87% 30.01 in - NW 6.7 mph - N/A   Clear
6:00 PM 35.6 °F 31.8 °F 33.8 °F 93% 30.04 in - NW 4.5 mph - N/A   Clear
7:00 PM 35.6 °F 31.8 °F 32.0 °F 87% 30.04 in - NW 4.5 mph - N/A   Clear
7:30 PM 35.6 °F - 32.0 °F 87% 30.04 in - Variable 2.2 mph - N/A   Clear
8:00 PM 32.0 °F 27.6 °F 30.2 °F 93% 30.04 in - SSW 4.5 mph - N/A   Clear
8:30 PM 32.0 °F - 30.2 °F 93% 30.04 in - Variable 2.2 mph - N/A   Clear
9:00 PM 32.0 °F 27.6 °F 30.2 °F 93% 30.04 in - SSW 4.5 mph - N/A   Clear
9:30 PM 32.0 °F 27.6 °F 30.2 °F 93% 30.04 in 4.3 mi South 4.5 mph - N/A   Unknown
10:00 PM 32.0 °F 25.7 °F 30.2 °F 93% 30.04 in 3.7 mi South 6.7 mph - N/A   Unknown
10:30 PM 30.2 °F 25.5 °F 30.2 °F 100% 30.04 in 3.7 mi South 4.5 mph - N/A   Unknown
11:00 PM 30.2 °F 25.5 °F 30.2 °F 100% 30.04 in 3.1 mi South 4.5 mph - N/A   Mist
11:30 PM 30.2 °F 25.5 °F 30.2 °F 100% 30.04 in 3.1 mi South 4.5 mph - N/A   Mist